Location: Unspecified
(51.5147°N, 7.4673°E)
Time: 17:44:44
(UTC+01:00)

Vanguard 1 - Pass Details

Date: 17 February 2026
Orbit: 653 x 3818 km, 34.2° (Epoch: 5 March)

Event Time Altitude Azimuth Distance (km) Brightness Sun altitude
Rises 23:01:59 0° 275° (W) 7,204 14.9 -45.2°
Reaches altitude 10° 23:09:00 10° 260° (W) 6,579 14.4 -45.8°
Maximum altitude 23:21:22 18° 226° (SW) 6,180 13.9 -46.8°
Enters shadow 23:25:36 17° 213° (SSW) 6,264 13.9 -47.1°
